Location: Rock Island IL
(41.5000°N, 90.5500°W)
Time: 17:32:41
(UTC-06:00)

Hubble Space Telescope - Visible Passes

Search period start: 20 February 2018 00:00
Search period end: 02 March 2018 00:00
Orbit: 537 x 541 km, 28.5° (Epoch: 20 February)

Date Brightness Start Highest point End Pass type
(mag) Time Alt. Az. Time Alt. Az. Time Alt. Az.
20 Feb 3.3 06:20:57 10° SSW 06:22:47 13° S 06:24:38 10° SSE visible
21 Feb 3.2 06:10:24 10° SSW 06:12:23 13° S 06:14:21 10° SSE visible
22 Feb 3.2 05:59:57 10° SSW 06:01:59 13° S 06:04:00 10° SSE visible
23 Feb 3.2 05:49:34 10° SSW 05:51:34 13° S 05:53:34 10° SSE visible
24 Feb 3.1 05:39:16 10° SSW 05:41:10 13° S 05:43:03 10° SSE visible
25 Feb 3.1 05:29:05 10° SSW 05:30:45 12° S 05:32:26 10° SSE visible
26 Feb 3.1 05:19:12 10° SSW 05:20:20 11° S 05:21:38 10° S visible
27 Feb 3.2 05:09:32 10° SSW 05:09:54 10° SSW 05:10:18 10° S visible
